This demonstration page uses our WeatherBlox Daily Observations layout. Learn more.

Hourly Observations for June 13, 2019

Temp ( °F °C ) Dew Point ( °F °C ) Humidity (%) Winds ( mph kmh ) Pressure ( in mb ) Visibility ( mi km ) Precip ( " mm )
12:15 am 00:15 Clear 56 13.6 46 7.7 68 68 SSW 5 7 30.12 1020 10 16.09344 0 0
12:35 am 00:35 Clear 56 13.4 45 7.3 67 67 S 5 7 30.12 1020 10 16.09344 0 0
12:55 am 00:55 Clear 56 13.1 44 6.6 65 65 SSW 5 7 30.12 1020 10 16.09344 0 0
1:15 am 01:15 Clear 56 13.5 43 6.3 62 62 S 5 7 30.12 1020 10 16.09344 0 0
1:35 am 01:35 Clear 55 13 43 6.1 63 63 S 5 7 30.12 1020 10 16.09344 0 0
1:55 am 01:55 Clear 55 12.7 43 6.1 64 64 SSW 6 9 30.12 1020 10 16.09344 0 0
2:15 am 02:15 Clear 54 12.3 43 6.1 66 66 SW 5 7 30.12 1020 10 16.09344 0 0
2:35 am 02:35 Clear 54 12 44 6.7 70 70 SW 5 7 30.12 1020 10 16.09344 0 0
2:55 am 02:55 Clear 54 12.2 45 7.3 72 72 SSW 7 11 30.12 1020 10 16.09344 0 0
3:15 am 03:15 Clear 53 11.9 45 7 72 72 SW 7 11 30.12 1020 10 16.09344 0 0
3:35 am 03:35 Clear 53 11.5 45 7 74 74 SW 8 13 30.12 1020 10 16.09344 0 0
3:55 am 03:55 Clear 52 11.2 44 6.9 75 75 SW 7 11 30.12 1020 10 16.09344 0 0
4:15 am 04:15 Clear 53 11.6 44 6.5 71 71 SSW 7 11 30.09 1019 10 16.09344 0 0
4:35 am 04:35 Clear 51 10.8 44 6.5 75 75 SW 8 13 30.09 1019 10 16.09344 0 0
4:55 am 04:55 Clear 52 11.1 44 6.6 74 74 SW 8 13 30.09 1019 10 16.09344 0 0
5:15 am 05:15 Clear 52 11.2 44 6.6 74 74 SW 7 11 30.09 1019 10 16.09344 0 0
5:35 am 05:35 Clear 52 11.2 44 6.6 74 74 SW 7 11 30.09 1019 10 16.09344 0 0
5:55 am 05:55 Clear 52 11 44 6.6 75 75 SW 6 9 30.09 1019 10 16.09344 0 0
6:15 am 06:15 Sunny 52 11.2 44 6.7 74 74 SW 7 11 30.09 1019 10 16.09344 0 0
6:35 am 06:35 Mostly Cloudy 53 11.8 45 7.1 73 73 SW 7 11 30.12 1020 10 16.09344 0 0
6:55 am 06:55 Cloudy 54 12.4 45 7.1 70 70 W 8 13 30.12 1020 10 16.09344 0 0
7:15 am 07:15 Partly Cloudy 54 12.1 45 7.2 72 72 NNW 6 9 30.12 1020 10 16.09344 0 0
7:35 am 07:35 Sunny 56 13.3 46 7.6 69 69 W 7 11 30.12 1020 10 16.09344 0 0
7:55 am 07:55 Partly Cloudy 58 14.4 47 8.1 66 66 WSW 8 13 30.06 1018 10 16.09344 0 0
8:15 am 08:15 Partly Cloudy 59 15 47 8.2 64 64 SW 8 13 30.09 1019 10 16.09344 0 0
8:35 am 08:35 Sunny 61 15.9 47 8.5 62 62 SW 10 17 30.06 1018 10 16.09344 0 0
8:55 am 08:55 Partly Cloudy 64 17.5 48 9 58 58 SW 10 17 30.03 1017 10 16.09344 0 0
9:15 am 09:15 Partly Cloudy 64 17.5 48 8.7 56 56 SW 14 22 30.03 1017 10 16.09344 0 0
9:35 am 09:35 Partly Cloudy 67 19.2 49 9.6 54 54 SSW 15 24 30.03 1017 10 16.09344 0 0
9:55 am 09:55 Mostly Cloudy 67 19.3 49 9.7 54 54 SW 12 19 30.03 1017 10 16.09344 0 0
10:15 am 10:15 Partly Cloudy 67 19.4 51 10.4 56 56 SSW 14 22 30.03 1017 10 16.09344 0 0
10:35 am 10:35 Sunny 69 20.5 51 10.7 54 54 SW 16 26 30 1016 10 16.09344 0 0
10:55 am 10:55 Partly Cloudy 69 20.6 51 10.7 53 53 SW 14 22 30 1016 10 16.09344 0 0
11:15 am 11:15 Partly Cloudy 73 22.5 51 10.8 48 48 SSW 14 22 29.97 1015 10 16.09344 0 0
11:35 am 11:35 Sunny 74 23.1 52 11 47 47 SW 13 20 29.97 1015 10 16.09344 0 0
11:55 am 11:55 Sunny 75 23.8 51 10.8 44 44 SSW 14 22 29.94 1014 10 16.09344 0 0
12:15 pm 12:15 Partly Cloudy 76 24.4 51 10.5 42 42 SSW 15 24 29.94 1014 10 16.09344 0 0
12:35 pm 12:35 Partly Cloudy 76 24.5 50 10 40 40 SSW 17 28 29.94 1014 10 16.09344 0 0
12:55 pm 12:55 Partly Cloudy 76 24.6 51 10.7 42 42 SW 14 22 29.91 1013 10 16.09344 0 0
1:15 pm 13:15 Sunny 76 24.7 51 10.7 41 41 SSW 15 24 29.91 1013 10 16.09344 0 0
1:35 pm 13:35 Sunny 77 25.2 51 10.8 40 40 SSW 15 24 29.91 1013 10 16.09344 0 0
1:55 pm 13:55 Sunny 78 25.4 51 10.7 40 40 S 18 30 29.88 1012 10 16.09344 0 0
2:15 pm 14:15 Sunny 78 25.5 52 11.2 41 41 SSW 16 26 29.88 1012 10 16.09344 0 0
2:35 pm 14:35 Sunny 79 26 51 10.5 38 38 S 18 30 29.88 1012 10 16.09344 0 0
2:55 pm 14:55 Sunny 79 25.9 52 11 39 39 S 20 31 29.85 1011 10 16.09344 0 0
3:15 pm 15:15 Sunny 79 26.1 52 11.1 39 39 S 21 33 29.85 1011 10 16.09344 0 0
3:35 pm 15:35 Sunny 79 26 52 11.3 40 40 S 20 31 29.85 1011 10 16.09344 0 0
3:55 pm 15:55 Sunny 79 26 52 11.3 40 40 S 20 31 29.85 1011 10 16.09344 0 0
4:15 pm 16:15 Sunny 79 26.2 52 11 39 39 S 21 33 29.85 1011 10 16.09344 0 0
4:35 pm 16:35 Sunny 79 26.2 52 11 39 39 S 20 31 29.8 1009 10 16.09344 0 0
4:55 pm 16:55 Sunny 80 26.4 51 10.5 37 37 S 24 39 29.8 1009 10 16.09344 0 0
5:15 pm 17:15 Partly Cloudy 79 26.2 52 10.9 38 38 S 20 31 29.8 1009 10 16.09344 0 0
5:35 pm 17:35 Partly Cloudy 79 26.3 52 11.3 39 39 S 21 33 29.8 1009 10 16.09344 0 0
5:55 pm 17:55 Sunny 79 26.2 52 11.2 39 39 S 20 31 29.77 1008 10 16.09344 0 0
6:15 pm 18:15 Sunny 79 26 53 11.5 40 40 S 18 30 29.77 1008 10 16.09344 0 0
6:35 pm 18:35 Sunny 78 25.7 52 11.1 40 40 SSE 18 30 29.8 1009 10 16.09344 0 0
6:55 pm 18:55 Sunny 78 25.4 53 11.4 42 42 SSE 18 30 29.8 1009 10 16.09344 0 0
7:15 pm 19:15 Sunny 77 25 53 11.6 43 43 S 20 31 29.8 1009 10 16.09344 0 0
7:35 pm 19:35 Sunny 76 24.5 53 11.7 45 45 SSE 16 26 29.77 1008 10 16.09344 0 0
7:55 pm 19:55 Sunny 74 23.5 53 11.5 47 47 SSE 15 24 29.77 1008 10 16.09344 0 0
8:15 pm 20:15 Sunny 73 23 52 11 47 47 SSE 17 28 29.77 1008 10 16.09344 0 0
8:35 pm 20:35 Sunny 73 22.5 52 10.9 48 48 SSE 15 24 29.77 1008 10 16.09344 0 0
8:55 pm 20:55 Sunny 71 21.9 51 10.5 48 48 SSE 14 22 29.77 1008 10 16.09344 0 0
9:15 pm 21:15 Clear 70 21.1 51 10.5 51 51 SSE 14 22 29.8 1009 10 16.09344 0 0
9:35 pm 21:35 Clear 69 20.5 51 10.5 53 53 SSE 14 22 29.8 1009 10 16.09344 0 0
9:55 pm 21:55 Clear 68 20 51 10.6 55 55 SSE 16 26 29.8 1009 10 16.09344 0 0
10:15 pm 22:15 Clear 67 19.6 52 10.9 57 57 SSE 16 26 29.8 1009 10 16.09344 0 0
10:35 pm 22:35 Clear 67 19.3 52 11 59 59 SSE 16 26 29.8 1009 10 16.09344 0 0
10:55 pm 22:55 Clear 66 19.1 51 10.8 59 59 SSE 15 24 29.8 1009 10 16.09344 0 0
11:15 pm 23:15 Clear 66 18.8 51 10.8 60 60 SSE 13 20 29.8 1009 10 16.09344 0 0
11:35 pm 23:35 Clear 66 18.8 52 10.9 60 60 SSE 14 22 29.8 1009 10 16.09344 0 0
11:55 pm 23:55 Clear 66 19 52 11 60 60 SSE 14 22 29.8 1009 10 16.09344 0 0

Powered by AerisWeather